Wind_Speed
42 39 40 39 37 37 37 36 36 35 35 34 33 33 32 31 29 28 25 22 20 19 17 15 14 16 17 18 18 17 17 15 15 15 11 9 8 8 9 9 9 10 12 13 15 15 15 15 15 15 15 15 15 16 17 17 18 18 19 20 21 23 24 25 26 27 28 29 29 29 30 30 30 31 31 31 31 31 31 31 32 32 33 34 35
42 40 41 40 36 35 35 36 35 34 33 32 32 32 31 30 29 27 24 22 19 18 16 12 11 13 16 18 18 18 17 15 15 14 11 10 10 11 11 10 9 10 11 12 13 14 13 13 13 13 14 14 15 15 16 17 17 18 19 20 21 22 23 24 25 26 27 28 28 29 29 29 29 29 29 29 29 29 29 30 30 31 32 33 34
40 42 43 42 38 35 35 35 34 33 31 31 31 30 29 28 27 26 24 21 19 18 16 12 10 11 14 17 19 19 18 16 15 14 12 12 12 12 11 10 9 10 10 9 9 9 10 10 11 12 12 13 14 14 15 16 16 17 18 19 20 21 22 23 23 24 25 26 26 27 28 28 28 28 28 27 28 28 28 29 29 30 31 32 33
40 42 44 43 39 35 35 34 31 31 30 30 31 30 28 28 27 25 23 21 19 19 17 12 9 10 13 16 19 19 18 17 15 14 13 13 13 12 11 10 10 10 8 7 6 7 8 9 10 11 12 13 13 13 14 15 16 17 17 19 19 20 20 21 22 23 23 24 24 25 26 26 26 27 27 27 27 27 28 28 29 30 30 31 32
40 43 44 44 39 35 36 33 30 28 26 27 30 29 28 28 27 25 22 20 20 20 18 13 10 10 12 15 18 20 19 18 16 15 13 13 13 13 11 11 10 9 7 6 6 7 8 9 10 12 13 13 12 12 14 15 17 17 18 19 19 19 19 20 21 21 22 22 22 23 24 24 25 25 26 26 26 27 28 28 29 29 30 30 31
41 43 45 45 39 35 35 33 30 28 24 24 27 28 28 28 28 25 21 20 20 18 16 15 12 9 11 14 18 19 19 18 17 16 14 14 14 13 12 11 10 8 7 7 6 7 8 10 12 13 13 13 12 13 15 17 19 20 20 20 20 19 19 19 19 20 21 21 22 22 23 23 24 24 25 26 26 27 27 27 28 28 28 29 29
45 46 46 46 40 35 35 33 31 30 25 24 27 27 28 28 28 25 21 23 21 18 16 16 13 9 10 14 17 19 19 18 18 17 16 15 15 14 13 12 11 8 7 8 8 9 10 12 13 14 14 13 14 15 17 19 21 23 23 23 22 20 19 18 18 19 19 20 21 22 22 23 23 24 24 24 25 25 25 25 26 26 26 26 26
49 49 49 47 43 38 35 34 32 31 27 25 27 26 27 29 28 25 24 26 23 20 18 18 15 10 10 13 16 19 19 19 19 18 17 16 16 16 14 13 11 9 8 9 9 11 12 14 14 14 15 14 15 16 18 20 22 26 26 25 24 23 22 20 19 19 19 19 20 21 22 22 23 23 23 23 23 23 23 23 23 22 22 22 22
50 49 49 49 45 40 35 34 34 34 30 24 24 25 27 29 28 27 26 26 25 22 20 20 18 13 10 12 15 19 20 20 20 19 18 16 16 17 17 15 13 10 9 9 10 12 14 15 15 15 15 15 16 17 18 20 23 27 27 26 26 24 24 23 21 20 19 19 20 21 22 22 22 22 21 21 21 20 20 19 19 18 18 19 20
52 50 50 50 47 41 36 34 37 36 32 25 23 26 30 32 32 30 27 25 23 20 20 21 20 15 11 12 15 18 21 21 20 21 18 17 16 17 18 18 16 13 11 10 10 13 16 16 16 15 15 15 16 17 19 21 24 28 28 27 26 25 25 25 24 22 21 20 20 21 22 22 22 21 20 20 18 17 16 16 16 16 17 18 20
53 53 53 51 47 43 38 36 39 37 35 30 26 28 31 34 35 32 30 25 20 19 20 22 21 16 13 13 14 17 20 21 21 21 20 17 16 17 18 19 19 17 14 12 12 13 16 17 16 15 16 16 17 18 20 22 25 28 28 27 27 26 26 26 25 24 22 21 21 21 22 22 22 22 20 18 16 14 14 14 15 17 18 19 20
53 54 54 51 47 44 39 38 39 37 36 32 30 29 27 31 34 33 32 26 21 21 21 24 22 17 16 14 14 15 19 22 22 22 20 18 17 17 18 20 20 19 17 15 15 15 17 18 16 16 16 17 18 19 21 22 26 29 28 27 27 27 27 26 26 24 22 22 21 22 22 22 22 21 20 18 15 13 13 15 17 18 18 19 21
53 53 53 51 47 44 41 41 39 37 35 31 33 33 27 30 33 33 32 27 25 25 22 24 23 19 18 16 14 15 18 22 23 22 21 18 17 17 18 20 19 18 18 17 17 17 18 19 17 17 17 17 18 20 21 23 26 29 28 27 27 27 27 27 26 24 23 22 22 22 22 22 21 20 19 16 14 14 15 17 18 19 19 20 22
52 52 52 50 48 45 43 43 40 39 36 31 35 36 30 32 35 35 33 31 30 26 22 23 22 21 21 18 16 16 17 21 23 23 22 19 17 17 18 20 19 18 17 18 18 18 19 20 18 18 18 18 19 20 21 23 26 28 27 26 26 27 27 27 26 25 23 23 22 22 22 21 20 19 17 16 15 15 17 18 19 19 20 21 22
52 51 51 49 48 46 43 44 42 42 39 32 34 38 35 31 32 35 33 33 35 28 22 20 19 22 23 21 18 17 17 20 23 24 22 20 18 17 18 19 20 19 17 19 20 19 19 20 19 18 18 18 19 20 21 23 26 27 26 26 27 27 27 27 26 25 24 23 23 22 22 21 19 18 17 16 16 17 18 19 19 20 21 22 22
52 51 50 48 48 46 43 44 44 45 44 35 32 37 39 34 31 33 31 33 36 29 23 20 21 24 24 22 20 18 18 19 22 24 23 21 19 18 18 19 20 20 19 20 20 20 19 20 19 18 18 19 19 20 21 23 26 26 26 27 27 28 27 27 26 25 24 23 23 23 22 21 20 19 18 18 18 19 20 20 21 22 23 23 24
52 50 49 48 48 47 45 45 44 45 48 41 34 35 39 40 37 34 32 33 33 28 24 25 28 26 25 25 24 21 19 19 21 23 24 22 20 19 18 19 20 20 20 20 20 19 20 20 19 18 18 19 20 21 21 23 26 26 26 27 28 28 27 26 26 25 24 23 23 23 22 22 21 20 20 20 20 21 21 22 23 24 24 25 25
52 50 49 48 48 48 47 47 46 45 47 46 40 36 36 40 42 40 35 31 29 28 28 31 30 27 25 28 27 23 19 18 20 22 23 23 21 21 19 19 20 20 20 20 19 19 20 21 20 18 18 19 20 21 22 24 26 26 25 26 27 28 28 27 27 26 25 24 23 23 23 22 22 22 22 22 22 22 23 24 25 25 25 26 27
51 50 48 48 50 50 49 48 49 48 45 47 46 40 36 37 40 39 33 29 29 30 33 32 29 27 28 30 28 24 20 18 19 21 22 23 22 22 21 21 21 22 22 21 19 20 21 21 21 19 19 20 21 22 23 24 26 27 25 26 27 27 28 28 28 27 26 25 25 24 23 23 23 23 23 23 24 24 24 25 25 25 26 27 28
52 51 49 50 51 52 51 49 50 52 46 45 49 46 41 38 38 38 33 31 32 33 33 31 29 31 31 30 28 26 23 20 20 21 22 22 22 22 22 23 23 23 23 22 21 21 22 22 22 20 21 21 22 23 24 25 27 27 26 26 26 27 28 30 30 29 28 27 26 26 25 25 24 24 25 25 25 26 26 26 26 26 27 28 29
53 52 51 51 52 53 53 50 49 54 51 43 47 51 46 41 40 39 39 36 35 34 31 29 29 30 31 30 28 28 26 23 21 22 24 23 22 22 22 24 25 24 24 24 23 23 24 24 23 22 22 22 23 24 24 26 27 27 27 26 26 27 29 31 31 31 30 29 28 28 27 27 26 26 26 26 26 27 27 27 27 27 28 28 29
55 53 53 54 54 55 54 52 49 53 54 45 45 52 51 46 43 41 43 41 38 37 33 30 29 30 32 31 30 30 28 25 22 22 25 25 23 21 22 24 26 26 26 25 25 25 25 25 24 23 23 23 24 24 25 27 28 28 28 27 26 27 29 31 32 32 31 30 30 29 29 28 28 27 27 27 27 27 27 27 27 27 28 28 29
56 54 54 55 56 56 53 52 52 53 54 49 47 52 53 50 45 44 44 44 44 41 36 33 32 32 33 33 33 31 29 26 22 22 24 25 25 24 23 24 26 27 27 27 27 25 26 26 25 24 24 24 25 25 26 27 28 28 29 28 28 28 29 32 33 33 32 31 31 30 30 30 29 28 28 27 27 27 27 27 27 27 27 28 29
58 55 55 56 56 55 53 52 53 53 53 51 49 50 53 51 46 45 45 46 47 43 38 37 36 36 34 33 34 31 29 26 22 22 23 25 26 26 25 26 27 27 27 28 27 26 26 26 25 24 25 25 25 25 27 28 28 29 30 30 29 29 30 32 33 33 32 32 31 31 31 31 30 29 29 28 27 27 27 27 27 27 27 28 29
58 56 56 56 56 55 53 54 54 54 53 52 52 51 51 52 48 45 45 46 45 43 40 39 39 39 36 35 35 32 28 25 22 22 24 25 26 27 27 27 27 27 27 28 28 27 27 26 24 24 25 26 26 26 28 29 29 29 30 30 30 30 31 33 34 33 31 31 31 31 32 32 31 30 29 29 28 27 27 27 27 27 28 29 29
59 58 58 57 55 54 54 55 55 55 55 55 55 52 50 51 51 46 45 44 42 41 42 43 43 43 41 39 38 33 28 26 24 23 24 24 26 27 27 28 28 28 28 27 27 28 27 26 24 24 26 27 27 27 29 29 29 30 31 31 31 31 31 33 34 32 31 31 32 32 32 33 33 31 30 29 29 28 27 27 27 27 28 30 30
60 59 58 56 55 55 53 53 56 57 56 57 56 53 49 49 51 49 45 45 45 44 43 45 46 46 45 42 40 35 30 29 27 25 25 25 25 27 27 28 28 27 27 27 27 28 27 26 24 24 26 28 29 29 29 30 30 31 31 31 31 31 32 33 34 32 31 31 32 32 33 34 34 33 32 30 29 29 28 28 28 28 29 30 31
58 58 57 57 56 56 54 51 55 59 57 58 58 54 51 49 50 52 50 48 50 50 47 47 48 47 46 44 41 38 34 32 31 29 28 26 26 26 27 28 28 27 26 26 26 27 27 26 24 24 27 29 30 29 29 30 31 32 32 32 32 32 32 33 33 31 31 32 33 33 34 34 35 34 33 31 30 30 29 28 28 29 30 31 32
58 57 57 57 57 57 57 53 54 59 57 57 58 54 53 52 50 51 54 52 52 52 50 50 47 46 46 45 42 38 35 33 31 30 29 28 27 26 27 28 28 27 25 24 25 26 26 25 24 25 28 30 30 30 31 32 32 33 32 32 32 32 33 33 32 30 31 33 34 34 34 34 35 34 34 32 31 30 30 29 29 30 31 33 34
58 56 56 57 58 58 59 56 55 58 57 56 57 54 50 54 55 51 51 54 54 53 52 50 47 47 47 46 41 36 34 31 28 27 27 27 27 27 27 28 27 26 24 24 25 26 26 25 24 26 28 30 31 32 33 33 32 32 32 31 32 33 34 33 30 30 32 34 35 34 34 34 34 34 33 32 32 31 30 29 30 31 33 34 35
56 54 55 57 58 60 60 57 55 57 58 57 57 54 46 47 56 57 52 52 54 56 55 52 49 50 49 45 42 38 35 32 27 25 25 26 26 26 27 27 27 26 24 24 24 26 26 25 24 26 28 29 31 32 32 32 31 31 31 31 32 33 33 32 29 29 32 34 35 34 34 34 34 34 32 32 32 31 31 30 31 32 34 35 36
55 53 55 57 58 61 61 57 53 55 59 59 58 55 46 42 49 58 57 53 53 55 56 55 53 53 51 47 44 42 40 37 32 26 24 24 23 23 24 25 25 25 25 25 26 27 27 27 26 27 28 28 29 30 30 30 30 30 31 31 32 32 32 31 28 29 32 34 35 34 34 33 33 33 32 32 31 31 31 31 32 33 35 36 37
56 55 54 54 56 60 61 56 50 53 59 59 59 57 50 45 46 53 59 57 54 55 57 55 55 53 52 50 47 46 44 40 36 31 27 26 26 26 27 27 27 27 28 29 30 30 30 29 28 28 27 27 27 27 28 28 28 30 31 32 32 31 31 30 29 30 33 34 34 35 34 32 32 32 32 32 31 31 31 32 33 34 36 37 37
60 59 58 54 55 60 62 58 50 51 58 59 59 57 52 48 47 49 55 59 58 57 58 56 55 55 53 52 49 47 44 38 37 35 32 32 32 33 33 32 32 31 30 32 33 33 31 30 29 29 28 27 27 26 27 27 28 30 32 33 32 31 29 29 30 31 33 34 34 35 33 31 31 31 31 31 32 32 32 32 34 35 36 37 37
63 63 65 61 58 60 63 62 54 50 56 58 58 56 54 53 50 48 51 57 60 59 59 57 55 55 53 51 50 48 45 41 39 39 37 37 36 36 36 36 36 34 33 34 35 34 32 30 29 29 28 28 28 27 27 27 28 30 32 32 32 31 29 29 31 32 33 34 34 34 32 30 31 30 30 31 31 32 32 33 34 35 36 37 37
64 65 68 66 62 62 64 64 58 51 51 55 59 60 57 57 54 52 52 55 59 60 59 57 55 55 53 51 50 49 49 46 44 43 42 41 39 39 39 38 37 35 35 36 35 34 32 30 29 29 29 29 30 29 28 28 28 29 30 31 32 32 30 31 32 32 33 34 33 32 29 29 31 30 30 30 31 31 32 33 34 35 36 37 36
64 65 67 66 64 64 65 65 61 53 50 52 60 62 60 60 59 57 58 55 56 59 59 57 56 55 54 52 52 52 52 51 49 47 46 44 42 41 40 38 37 37 36 35 34 34 32 31 31 30 30 31 31 30 28 28 27 27 28 29 32 33 32 32 31 31 33 33 32 29 27 28 29 30 30 30 31 31 32 33 34 35 36 37 36
65 64 66 66 65 65 66 66 63 55 51 52 59 64 64 64 62 59 61 58 55 56 57 57 57 55 54 54 55 54 54 54 52 51 49 46 43 41 39 38 38 37 36 34 34 33 32 32 32 31 31 31 32 31 29 27 26 25 26 28 30 32 33 33 31 31 32 32 31 28 26 27 28 29 30 30 31 31 32 33 34 35 36 37 36
67 65 66 67 66 66 68 69 66 60 56 56 58 64 68 69 64 59 61 63 58 55 54 54 56 55 55 56 56 55 55 55 54 53 51 47 44 41 40 39 38 36 35 33 32 32 32 33 32 32 31 31 32 31 29 27 25 24 25 27 29 30 32 32 32 31 31 32 30 27 26 26 27 28 29 30 30 31 32 33 34 35 36 37 36
70 68 67 68 67 67 71 72 69 64 61 61 61 64 69 71 68 62 63 66 64 59 55 54 53 53 53 54 54 54 54 55 54 53 52 48 45 42 40 40 38 36 35 34 33 32 32 32 32 33 33 32 31 30 29 27 25 24 25 26 28 30 31 31 31 31 31 31 29 26 25 25 26 28 29 29 30 31 32 33 34 35 36 37 36
72 70 68 69 69 69 74 76 72 68 63 63 66 67 69 70 70 66 65 67 67 63 59 56 55 53 52 51 50 50 52 53 53 53 52 49 46 43 42 41 39 38 37 36 35 34 32 32 33 34 34 33 32 30 28 26 25 24 25 26 28 30 31 31 31 30 30 30 28 25 25 25 26 28 29 29 30 31 32 33 34 35 36 37 36
74 73 70 69 71 71 75 79 77 72 66 64 67 69 69 70 70 68 67 68 68 66 64 61 59 56 55 54 53 52 52 52 52 52 52 51 48 45 43 42 41 40 39 38 38 36 34 34 34 34 34 33 31 29 27 27 25 24 24 26 28 30 31 31 30 29 29 28 26 25 24 24 26 28 29 29 30 31 32 33 34 35 36 37 37
75 74 73 70 72 73 76 81 81 76 70 66 65 67 69 71 72 71 69 67 65 65 65 64 62 61 58 57 57 57 56 55 54 53 51 50 49 47 44 43 42 41 40 40 39 38 37 36 34 33 33 32 30 28 27 27 25 24 25 26 29 30 30 29 28 27 27 25 24 24 24 24 26 28 29 29 30 31 32 33 34 35 35 37 37
76 75 75 73 72 74 77 81 83 80 75 70 66 66 68 69 69 70 70 67 64 63 62 61 61 62 62 61 60 59 57 57 56 54 51 50 50 50 47 44 43 42 41 41 40 40 39 36 34 33 32 31 29 27 27 26 25 24 25 27 29 29 28 27 27 25 23 22 23 24 24 25 26 28 29 30 30 31 32 33 34 34 35 36 37
79 77 77 75 73 74 77 80 83 82 79 75 71 68 66 64 63 66 69 67 64 62 61 59 58 58 59 62 63 62 61 60 58 55 52 51 51 52 51 47 45 44 43 42 42 41 39 35 34 33 32 30 28 26 26 26 25 26 27 28 29 27 26 25 24 22 20 21 22 23 24 25 27 29 30 30 30 31 32 33 34 34 34 35 37
81 79 78 78 76 75 77 80 82 82 81 80 78 72 67 63 60 61 64 64 61 60 59 58 58 55 53 55 58 59 61 63 62 59 56 54 53 53 53 51 47 46 45 44 43 42 39 35 34 33 31 30 28 26 26 26 27 28 29 30 29 25 24 23 22 21 20 21 22 23 24 25 27 29 30 31 31 32 32 33 34 34 34 35 36
83 81 80 79 79 78 78 79 82 83 83 83 82 77 71 66 63 60 59 59 58 58 59 59 60 58 55 52 52 51 52 58 63 63 61 59 57 56 55 54 50 48 48 46 45 44 41 37 34 32 31 30 29 28 28 28 29 30 31 31 28 23 21 22 22 20 20 21 22 23 24 25 27 29 31 31 32 32 32 33 33 34 34 34 36
85 84 82 81 81 80 79 80 82 84 85 85 83 81 75 69 66 62 59 56 55 56 58 60 61 60 58 56 54 50 46 50 57 60 60 59 58 57 56 54 52 50 49 47 46 45 42 37 33 32 32 31 31 31 30 31 32 34 34 32 27 22 21 23 23 21 21 21 22 22 23 25 26 29 31 32 33 33 33 33 33 34 34 34 35
87 86 84 82 82 82 81 80 81 83 85 85 84 82 78 72 69 65 60 55 55 56 57 57 56 56 57 56 53 49 44 44 49 52 54 54 54 54 54 53 52 49 48 47 46 43 41 37 33 33 33 33 33 33 34 35 36 37 35 30 25 22 21 23 24 23 22 22 23 23 22 23 25 27 30 32 33 33 33 33 33 34 34 34 35
90 88 86 84 83 83 84 82 80 82 84 85 85 82 78 74 72 68 62 57 56 58 57 53 53 55 55 51 47 45 44 43 44 46 47 49 50 51 51 51 49 47 47 46 45 42 40 37 35 35 35 36 37 37 37 38 38 37 32 27 25 22 21 23 24 24 24 24 24 25 23 22 22 24 29 31 32 33 33 33 33 33 34 34 34
91 90 88 87 85 85 85 84 82 81 84 85 85 83 79 74 72 70 67 62 59 59 57 52 50 51 50 48 45 44 45 44 44 45 46 47 48 49 49 48 47 46 45 45 44 42 40 38 36 37 38 40 41 40 39 37 36 34 29 26 26 24 23 24 24 24 25 25 25 26 25 23 21 23 27 31 32 33 33 33 33 33 34 34 34
Wind_Direction
244 249 251 248 246 246 247 249 250 251 251 252 252 251 251 251 251 251 251 253 255 259 264 268 271 268 262 259 259 258 258 257 254 242 214 190 195 210 221 230 239 247 256 259 260 262 263 264 266 268 270 273 275 279 282 285 286 287 289 290 290 287 283 280 278 276 276 275 275 274 273 273 272 272 272 272 273 274 275 276 277 278 279 280 280
243 242 245 247 244 243 245 247 248 248 248 249 250 250 250 250 249 249 249 249 250 253 254 257 264 267 263 259 259 258 258 255 251 239 210 193 203 213 221 228 240 255 264 265 265 263 264 267 268 271 273 276 279 284 289 290 291 292 293 293 292 290 287 283 280 278 278 277 277 277 276 276 276 275 276 276 277 278 280 281 282 282 283 284 284
241 241 243 247 243 241 243 244 245 244 245 246 247 247 247 247 248 248 248 246 245 246 241 238 249 261 263 261 259 259 258 253 247 235 208 196 206 213 220 228 243 262 269 270 270 268 268 272 274 278 281 285 288 292 297 299 298 300 301 301 298 294 289 285 282 281 281 281 280 280 279 279 278 278 279 279 281 281 282 283 284 285 285 285 285
238 242 244 246 243 239 240 240 240 242 243 244 245 245 244 246 247 249 248 243 241 238 230 230 241 256 261 262 261 260 260 254 244 232 211 199 207 213 218 228 246 265 272 274 273 274 277 282 287 290 293 295 296 301 307 311 313 313 314 314 310 303 295 289 285 283 283 284 283 283 282 281 281 280 280 281 282 282 283 284 285 285 286 286 286
235 239 242 245 243 238 238 236 234 237 237 242 245 243 243 245 246 248 245 240 237 230 224 228 239 254 257 259 261 262 261 254 242 231 216 206 208 214 219 229 247 269 275 271 268 273 281 290 298 301 302 303 301 305 315 322 326 325 324 325 321 314 304 296 290 287 287 287 287 287 286 285 285 284 284 284 284 285 286 287 287 288 288 289 289
228 232 238 243 243 237 236 232 229 228 226 240 246 242 243 245 246 245 240 235 231 223 224 229 235 253 256 255 259 261 262 255 242 233 225 216 214 216 221 231 246 271 278 268 264 272 282 293 303 306 307 307 304 307 318 326 332 333 331 330 329 324 314 306 300 295 293 293 293 293 293 292 291 290 289 289 289 289 289 290 291 292 292 293 293
224 228 234 241 243 239 236 230 226 223 223 239 243 241 244 246 247 244 234 231 233 229 230 231 233 255 262 255 255 260 262 257 243 235 233 225 221 222 225 232 245 268 281 272 265 272 284 295 303 307 307 307 307 309 318 326 334 337 335 332 332 331 325 316 310 306 303 301 301 300 299 299 298 297 295 294 293 293 293 294 295 295 296 296 297
228 231 234 240 243 241 237 230 221 217 223 236 238 237 243 247 249 246 237 234 240 240 235 234 234 251 269 259 251 256 260 257 246 238 239 233 228 227 229 234 243 261 280 280 273 274 283 294 301 304 305 306 308 311 317 324 333 337 337 334 333 334 332 326 320 315 313 311 310 308 306 305 303 301 299 298 297 296 297 297 298 299 300 300 300
231 232 235 239 242 241 237 230 218 214 223 232 236 241 247 252 253 250 241 238 243 242 239 237 236 244 265 267 253 252 257 256 248 243 244 239 235 231 231 236 240 253 274 285 282 280 283 290 297 300 302 305 309 312 318 324 331 337 337 334 332 333 335 333 328 324 321 320 318 315 313 310 306 303 301 299 299 299 300 301 302 302 302 302 302
231 231 235 238 240 239 236 230 218 216 221 222 231 246 253 252 252 252 242 237 240 241 242 239 238 243 258 272 261 251 252 255 251 247 249 245 242 237 234 237 239 245 263 285 289 287 287 289 293 296 299 302 309 312 318 323 329 336 337 334 331 331 333 335 332 329 327 326 324 321 317 313 308 304 301 299 300 302 304 305 304 303 302 302 302
233 232 233 237 240 238 234 228 222 221 219 217 225 240 250 242 240 247 241 234 237 247 253 245 238 243 258 269 265 253 249 252 252 249 251 250 247 242 238 239 242 243 254 280 292 290 290 288 289 292 295 301 308 312 318 324 329 336 337 333 331 329 330 333 333 332 330 329 327 325 320 315 310 305 302 300 300 302 304 304 304 303 302 302 302
234 234 234 236 239 237 232 227 225 222 218 222 228 234 243 233 231 243 242 233 237 247 253 249 239 243 258 264 263 256 247 247 250 249 251 252 251 246 240 241 245 245 248 270 289 290 290 289 288 288 292 298 305 312 319 324 329 335 337 333 330 329 330 332 333 333 332 331 329 327 322 317 311 306 303 301 299 299 301 302 302 302 301 301 304
235 234 235 235 236 234 230 226 225 218 216 225 230 232 235 230 234 244 243 233 236 244 249 248 238 243 255 259 264 259 249 245 246 248 250 252 253 248 241 242 247 249 248 262 282 286 287 288 286 286 289 295 303 311 319 323 329 335 337 334 330 330 332 333 333 334 335 334 331 328 323 318 312 306 302 299 299 300 302 302 301 300 300 302 304
235 235 234 234 234 233 229 225 221 213 215 225 226 226 228 234 242 244 240 231 235 246 248 244 238 247 254 256 265 264 253 244 243 245 247 250 253 251 245 244 248 248 248 257 272 279 283 285 284 284 287 293 301 310 317 322 330 336 338 335 331 331 334 334 334 335 337 336 333 330 325 319 313 306 301 299 299 302 304 303 301 300 300 301 303
235 235 235 233 233 232 228 223 218 211 213 222 222 220 221 233 242 237 235 231 233 242 242 244 248 252 253 254 263 266 258 245 241 243 244 247 251 254 250 249 250 248 247 253 263 272 278 281 281 281 285 293 301 308 313 320 331 337 338 336 333 333 336 336 335 336 338 338 335 331 327 321 315 308 303 300 301 303 304 302 301 300 300 301 302
235 234 235 234 232 230 226 221 215 211 212 214 219 222 219 224 232 229 232 232 232 238 238 247 261 256 252 255 260 265 263 246 239 240 242 245 249 254 255 253 253 254 254 255 262 269 274 277 278 280 284 292 299 304 309 318 330 336 337 337 335 336 339 338 336 336 338 338 335 331 327 322 316 311 307 304 303 303 303 302 302 301 301 301 301
234 233 233 233 232 229 224 220 215 214 213 211 214 224 223 223 226 228 234 234 235 238 239 254 260 252 251 256 258 263 265 250 240 240 242 244 248 253 256 256 256 259 260 262 267 271 274 276 279 280 284 290 295 300 304 314 327 333 335 336 336 338 341 340 337 336 338 338 336 331 327 322 317 313 310 308 306 304 303 303 303 303 302 301 301
233 231 231 231 231 229 224 219 213 214 217 214 213 221 227 229 229 229 233 234 234 236 246 256 251 244 249 253 254 259 261 250 242 242 243 245 249 251 255 258 259 261 263 267 271 274 275 276 280 282 284 287 291 295 301 312 325 330 332 335 337 340 342 342 339 337 337 337 336 333 328 323 319 315 312 311 309 307 306 305 305 304 303 303 303
231 229 228 229 230 229 225 219 212 213 217 218 217 219 225 232 234 231 231 231 232 241 253 251 243 251 255 248 251 257 256 251 246 245 246 249 250 250 253 257 260 262 265 269 273 275 275 276 280 283 283 284 287 292 299 311 323 327 329 333 337 341 343 343 341 339 337 336 335 334 332 327 322 318 315 313 311 310 308 307 307 306 306 305 306
229 226 224 225 227 228 226 221 216 215 217 220 221 221 221 227 232 231 231 235 241 247 251 246 247 257 250 242 250 256 256 254 252 251 251 252 252 251 252 256 260 263 265 269 273 275 275 276 280 282 282 283 284 290 298 310 321 325 326 330 335 340 344 343 341 339 337 335 335 334 333 330 327 323 318 314 312 310 308 307 307 307 307 308 308
227 224 221 221 224 226 225 222 221 219 219 221 222 222 221 224 228 227 228 234 239 239 240 245 252 249 242 245 252 256 256 255 257 257 258 256 253 251 251 255 260 263 266 268 271 273 273 276 280 282 281 281 283 289 298 309 319 323 324 327 332 338 343 343 341 339 337 335 334 333 332 331 330 327 323 318 314 311 309 308 307 307 308 309 311
226 223 220 219 222 224 223 221 222 220 219 220 224 225 223 225 229 227 227 229 230 231 236 245 249 246 246 252 253 255 254 253 260 261 261 260 256 252 252 256 259 263 266 267 269 270 271 274 278 280 279 278 281 288 298 308 316 321 323 325 328 333 339 342 341 338 337 335 334 333 332 331 330 329 326 322 318 314 311 310 310 310 311 312 313
226 224 221 220 220 223 223 221 222 223 220 219 223 227 226 227 231 230 227 228 228 230 237 242 247 249 247 248 249 249 249 251 260 263 262 260 258 257 256 258 260 263 265 265 266 268 268 271 276 278 277 277 280 288 297 306 313 317 321 323 325 328 333 338 340 338 336 335 334 333 333 332 331 329 327 324 320 317 314 314 314 315 315 316 317
225 224 223 222 222 223 222 221 222 224 225 222 221 225 228 228 230 231 228 228 230 232 236 241 247 247 241 241 244 244 245 250 259 265 263 259 259 259 259 260 262 265 265 265 265 265 267 270 275 277 276 276 280 287 295 303 308 314 318 321 323 325 329 335 338 337 335 334 334 334 334 333 332 330 328 325 322 319 317 317 317 318 318 319 320
224 223 223 223 223 223 221 221 222 222 225 225 223 224 227 227 227 230 229 228 232 235 235 240 244 241 238 241 243 242 244 248 257 264 263 260 260 260 261 261 264 267 266 265 263 263 266 270 274 276 274 274 279 287 294 299 305 311 316 319 321 324 328 332 335 335 334 334 333 334 335 335 333 331 329 327 325 322 320 319 320 320 321 322 322
223 221 222 221 221 223 222 222 224 222 224 225 224 224 223 225 227 228 229 228 231 234 233 236 238 238 240 242 241 242 245 248 253 259 262 262 262 262 263 263 265 267 267 265 263 263 266 270 274 274 272 273 278 286 292 297 303 309 314 317 319 322 326 330 332 333 333 333 333 334 335 335 335 333 331 329 327 325 323 322 322 322 323 324 324
227 224 223 221 219 220 221 223 225 223 223 223 223 224 222 222 225 226 227 227 225 226 227 230 235 238 240 241 240 242 247 250 251 256 262 263 265 265 264 265 266 267 267 265 263 263 267 270 272 272 270 272 277 284 289 295 302 307 312 316 317 320 324 328 330 331 332 332 332 333 334 335 335 334 332 331 330 327 325 324 324 325 325 326 326
232 230 226 222 219 218 217 221 225 223 223 223 222 224 224 222 224 224 226 228 227 226 227 230 235 239 240 241 242 244 249 251 252 256 260 262 267 268 265 265 266 267 266 264 264 265 268 270 271 271 269 271 275 281 287 294 301 305 309 314 316 319 323 326 328 328 330 331 331 332 333 334 334 334 333 332 331 329 327 327 327 327 327 328 328
229 230 228 223 219 217 215 218 223 223 223 222 222 224 226 226 226 225 225 227 230 229 231 233 236 240 242 242 243 245 248 250 253 256 258 260 265 268 266 265 266 266 265 265 266 268 270 271 271 270 269 271 275 279 286 293 300 304 307 311 315 318 322 324 326 327 328 330 330 331 332 333 333 334 334 332 331 330 329 329 330 330 329 330 330
223 225 227 224 220 217 215 218 223 223 222 221 222 225 228 230 230 229 228 227 229 230 232 234 236 239 241 242 243 244 247 248 253 257 256 257 261 266 266 265 266 266 267 268 271 273 273 272 270 268 269 272 276 281 287 293 299 302 305 309 314 318 321 323 324 325 327 328 329 330 331 331 332 333 333 332 331 331 331 332 332 331 331 331 330
220 221 224 224 220 217 215 217 222 223 221 221 222 224 228 231 231 231 231 230 229 230 232 233 234 237 241 243 244 245 246 247 252 254 253 254 258 263 265 266 267 266 267 271 275 278 277 276 272 270 272 275 279 284 289 294 299 302 305 308 313 317 320 322 323 323 325 327 328 329 330 330 331 332 332 331 331 332 332 333 333 332 331 331 330
218 219 222 224 221 217 215 215 221 224 222 222 223 223 224 228 232 233 233 233 233 231 231 233 234 238 242 244 246 249 250 250 249 249 251 253 257 263 267 269 270 272 274 277 281 282 283 282 278 276 277 280 282 285 289 294 300 303 305 309 313 316 319 320 321 322 324 326 327 328 330 330 330 332 332 331 331 332 333 334 333 331 331 331 331
216 219 223 225 224 219 214 213 220 225 223 223 223 223 224 224 230 235 235 235 235 234 233 233 235 239 242 245 248 252 254 250 245 245 248 251 257 264 270 272 274 278 282 287 287 285 286 285 282 281 281 282 283 285 289 295 300 303 307 311 313 316 318 319 319 321 323 325 326 327 329 329 329 332 332 331 331 332 334 334 333 332 331 332 332
215 217 221 222 222 218 212 211 217 223 223 222 222 224 226 225 229 234 236 237 238 238 237 236 237 240 243 246 248 250 252 246 241 243 248 251 257 263 267 271 273 277 283 289 290 286 286 286 283 283 282 282 284 286 290 295 300 303 308 310 312 315 317 317 318 321 322 323 324 325 327 328 329 331 331 331 331 332 333 334 332 332 332 333 334
216 216 218 219 218 215 211 210 213 219 222 223 221 221 223 223 227 230 232 237 240 240 240 240 239 241 243 246 247 249 250 247 244 247 250 253 260 263 265 268 270 273 280 287 288 284 284 286 285 284 284 284 286 287 290 294 298 303 307 308 309 314 316 316 317 320 321 321 322 324 326 328 330 331 331 331 331 332 333 333 332 332 333 334 335
216 216 218 219 216 212 210 209 211 217 221 223 222 219 218 218 221 224 224 230 237 239 239 239 240 241 242 244 245 248 251 251 251 252 253 257 263 265 266 267 267 271 278 283 283 281 282 285 286 287 288 288 289 289 290 292 296 301 303 305 307 311 314 315 317 318 318 318 321 324 325 328 330 330 331 331 331 331 332 332 332 332 334 336 337
217 216 218 219 215 211 208 207 209 214 217 221 222 219 217 217 219 222 220 222 230 236 237 237 238 240 241 242 245 247 251 253 254 254 256 260 264 265 265 264 264 269 275 278 278 277 278 281 285 288 290 291 291 291 291 290 293 298 300 301 304 307 311 313 315 316 314 316 322 324 325 328 330 331 331 331 331 331 331 332 332 333 335 338 338
220 216 216 217 214 210 207 206 206 210 214 220 224 220 217 219 222 223 221 220 225 231 235 237 237 239 240 242 246 248 251 253 254 256 258 261 263 264 263 261 263 268 272 273 274 274 276 279 284 288 291 293 292 292 290 288 290 294 294 296 299 302 307 310 313 313 312 316 321 323 325 327 329 331 331 330 330 330 331 331 332 334 337 339 339
222 218 215 216 214 209 206 206 206 207 210 216 222 222 220 220 223 226 223 221 225 228 232 237 238 240 241 243 247 249 251 253 255 257 259 260 261 261 261 259 262 267 268 268 269 272 275 279 283 287 290 292 293 291 287 286 287 289 290 293 297 302 306 308 310 311 311 315 319 322 324 327 328 329 330 329 329 329 330 331 332 334 338 340 340
221 220 216 215 215 209 205 206 206 207 210 212 216 220 221 222 224 227 225 222 225 227 228 232 235 237 241 244 247 249 251 253 255 257 258 259 259 259 259 258 260 263 263 264 265 269 274 279 283 285 287 290 292 290 286 284 284 286 289 293 298 304 306 306 307 308 309 313 317 321 324 327 328 327 328 328 328 329 330 331 333 335 339 341 341
220 220 218 215 215 211 206 206 206 207 210 212 215 218 219 222 224 227 226 223 224 226 228 230 232 234 237 240 243 246 250 252 254 255 257 257 257 258 257 257 258 260 261 262 264 267 272 277 281 282 284 288 290 287 283 282 282 285 290 295 300 305 306 305 305 305 306 310 314 319 324 327 327 325 326 327 328 329 330 332 333 336 339 341 341
219 219 219 216 215 212 208 208 208 207 210 213 217 220 219 220 223 225 225 224 224 225 228 230 232 235 237 239 241 245 248 250 252 254 256 257 257 257 257 257 257 258 260 262 263 265 268 273 278 280 282 285 285 282 279 279 280 285 292 298 304 306 305 304 304 303 305 309 313 319 323 326 325 323 324 326 327 329 331 333 333 336 339 341 342
220 219 219 217 215 213 210 209 209 208 210 213 217 220 220 221 223 224 225 226 226 226 228 230 233 236 238 240 242 244 246 247 250 252 255 256 257 257 257 256 257 257 259 261 262 264 266 270 274 278 281 281 280 277 275 276 279 286 294 302 307 307 305 304 303 303 306 309 313 318 322 324 323 321 323 326 327 329 331 333 334 336 338 341 342
222 219 218 218 216 214 212 211 210 210 210 212 214 217 220 222 224 226 227 228 228 229 230 232 234 236 238 240 241 242 244 245 248 250 251 253 255 257 257 257 256 256 257 260 262 263 265 267 271 275 278 278 276 273 272 275 280 287 296 302 306 306 304 303 303 305 308 311 314 318 321 323 322 320 322 326 327 328 331 333 333 335 338 341 342
223 220 218 218 217 215 213 212 211 211 211 212 212 214 216 220 224 228 229 230 230 232 233 234 236 238 239 239 240 241 243 244 245 246 247 250 252 254 257 258 257 256 256 258 260 261 262 265 269 273 276 274 272 271 272 275 281 288 295 300 303 304 303 304 304 307 310 312 314 316 319 321 320 320 322 326 327 328 331 332 333 334 337 340 342
223 222 219 217 217 216 214 213 212 212 212 212 213 213 214 217 221 226 230 231 231 233 234 235 236 236 236 236 238 241 243 243 243 243 244 246 249 252 256 258 257 256 255 256 257 259 260 263 267 271 274 272 270 269 271 276 281 288 292 296 299 300 303 306 307 309 312 314 315 315 317 320 320 321 324 326 327 328 330 332 332 334 337 340 342
222 222 220 217 216 217 215 213 213 213 213 214 214 215 215 216 219 222 227 229 230 232 233 233 234 235 234 235 238 242 243 242 242 242 244 245 248 251 254 257 257 257 256 255 255 256 257 260 264 270 274 273 272 271 273 278 283 286 289 292 293 294 303 309 308 310 315 317 317 317 318 321 323 323 325 326 326 327 329 331 332 333 337 341 342
222 222 221 218 216 217 217 214 213 213 214 215 216 216 216 218 220 221 222 224 227 231 233 234 235 236 236 237 240 243 242 240 240 242 243 245 247 249 252 254 256 256 255 254 255 256 257 258 264 269 273 273 272 273 275 279 282 283 286 288 285 287 301 309 309 312 316 318 320 321 319 322 326 326 326 327 326 327 329 330 331 333 337 341 342
222 222 221 219 217 216 217 216 214 213 214 216 217 218 217 218 220 220 219 221 223 227 230 233 236 238 239 240 240 241 239 237 237 239 241 243 244 247 249 251 253 253 251 251 253 256 258 259 264 268 269 269 269 271 273 276 278 280 281 281 277 283 301 307 307 312 316 318 321 323 321 324 330 328 326 327 327 327 329 330 331 332 336 340 341
221 222 221 221 218 216 217 217 215 213 213 215 216 217 217 218 220 220 218 220 221 224 226 229 233 236 238 238 239 239 239 236 234 235 238 240 241 243 245 247 249 249 248 249 251 254 256 258 263 266 265 265 265 266 269 271 273 275 275 272 269 280 300 307 307 311 314 316 319 322 322 326 332 328 325 327 328 328 330 330 331 331 334 339 341
220 221 221 221 220 217 216 217 216 213 213 214 215 215 216 217 218 219 218 218 220 223 224 225 228 230 233 236 238 239 241 239 236 236 237 238 240 241 243 245 246 246 246 247 249 250 253 258 262 262 260 260 261 263 266 267 268 269 267 264 265 274 291 304 309 310 312 313 315 320 322 324 328 327 325 327 328 329 330 331 331 331 333 337 340
Height
10867 10868 10868 10869 10870 10871 10872 10873 10873 10874 10875 10876 10876 10878 10878 10879 10880 10880 10880 10880 10880 10880 10880 10880 10880 10880 10879 10879 10878 10878 10878 10878 10879 10879 10879 10879 10879 10880 10880 10881 10881 10881 10881 10880 10880 10879 10879 10878 10877 10877 10876 10876 10875 10875 10874 10873 10872 10872 10871 10870 10868 10867 10866 10865 10864 10863 10862 10861 10861 10860 10859 10858 10857 10856 10855 10854 10853 10852 10851 10850 10848 10847 10846 10845 10844
10864 10864 10864 10866 10868 10869 10869 10870 10871 10872 10872 10873 10873 10875 10876 10876 10877 10877 10878 10878 10878 10879 10879 10878 10878 10878 10878 10877 10877 10877 10877 10877 10878 10878 10878 10878 10878 10879 10879 10880 10880 10880 10880 10879 10878 10878 10877 10877 10876 10875 10875 10874 10874 10873 10873 10872 10871 10870 10869 10868 10867 10866 10864 10863 10862 10861 10860 10859 10858 10857 10856 10855 10854 10853 10852 10851 10850 10849 10848 10847 10846 10845 10843 10842 10841
10861 10861 10861 10863 10865 10866 10867 10868 10868 10869 10870 10870 10871 10872 10873 10874 10874 10875 10875 10876 10876 10877 10877 10877 10877 10877 10876 10876 10875 10875 10876 10876 10876 10877 10877 10876 10877 10877 10878 10878 10879 10879 10878 10878 10877 10876 10876 10875 10875 10874 10874 10873 10872 10872 10871 10870 10870 10869 10868 10866 10865 10864 10863 10861 10860 10859 10858 10857 10856 10855 10854 10853 10852 10851 10850 10849 10848 10846 10845 10844 10843 10842 10841 10840 10838
10857 10857 10857 10859 10862 10864 10864 10865 10866 10867 10868 10868 10868 10869 10871 10871 10872 10872 10873 10874 10874 10874 10875 10875 10875 10875 10874 10874 10874 10874 10875 10875 10876 10876 10876 10875 10876 10876 10877 10877 10877 10878 10877 10876 10876 10875 10874 10874 10873 10873 10872 10872 10871 10870 10869 10869 10868 10867 10866 10864 10863 10862 10861 10859 10858 10857 10856 10855 10854 10853 10852 10851 10850 10849 10848 10847 10846 10844 10843 10842 10841 10840 10839 10837 10836
10854 10854 10853 10855 10858 10860 10861 10863 10864 10865 10866 10866 10866 10867 10868 10869 10869 10870 10871 10872 10872 10871 10872 10872 10873 10873 10872 10872 10872 10873 10873 10874 10875 10875 10875 10875 10875 10875 10875 10876 10876 10876 10876 10875 10875 10874 10873 10873 10872 10872 10871 10870 10870 10869 10868 10867 10866 10865 10864 10863 10861 10860 10859 10857 10856 10855 10854 10853 10852 10851 10850 10849 10848 10847 10846 10844 10843 10842 10840 10839 10838 10837 10836 10834 10833
10851 10851 10850 10852 10855 10857 10858 10860 10862 10863 10864 10864 10864 10865 10865 10866 10867 10868 10869 10869 10869 10869 10869 10870 10871 10871 10870 10870 10871 10871 10872 10873 10874 10874 10874 10874 10874 10874 10874 10874 10875 10875 10875 10874 10874 10873 10872 10872 10871 10871 10870 10869 10868 10867 10866 10865 10864 10863 10862 10861 10860 10858 10857 10855 10854 10853 10852 10851 10850 10849 10848 10847 10846 10844 10843 10842 10840 10839 10837 10836 10835 10834 10833 10832 10830
10846 10847 10848 10849 10852 10854 10855 10857 10859 10861 10862 10862 10862 10862 10863 10864 10865 10865 10867 10867 10866 10866 10867 10868 10869 10869 10869 10869 10869 10870 10870 10871 10872 10873 10874 10873 10873 10873 10873 10873 10874 10874 10874 10873 10873 10872 10871 10870 10870 10869 10868 10868 10867 10866 10865 10863 10862 10861 10860 10859 10858 10856 10855 10854 10852 10851 10850 10849 10848 10846 10845 10844 10843 10842 10840 10839 10837 10836 10835 10833 10832 10831 10830 10829 10827
10842 10844 10845 10846 10849 10851 10853 10855 10856 10858 10859 10860 10859 10860 10861 10862 10862 10863 10864 10864 10864 10864 10865 10866 10867 10867 10867 10867 10867 10868 10869 10870 10871 10872 10873 10872 10872 10872 10872 10872 10872 10872 10872 10872 10872 10870 10869 10869 10868 10868 10867 10866 10865 10864 10863 10862 10861 10860 10858 10857 10856 10855 10853 10852 10851 10849 10848 10847 10845 10844 10843 10842 10841 10839 10838 10836 10835 10833 10832 10831 10830 10829 10828 10826 10825
10838 10840 10841 10842 10845 10847 10850 10852 10853 10854 10856 10857 10858 10859 10859 10859 10860 10861 10861 10861 10862 10862 10863 10864 10865 10865 10865 10865 10865 10866 10867 10868 10869 10871 10871 10871 10871 10871 10871 10871 10871 10871 10871 10871 10870 10869 10868 10867 10867 10866 10866 10865 10864 10863 10862 10861 10860 10858 10857 10855 10854 10853 10852 10850 10849 10848 10846 10845 10843 10842 10841 10840 10839 10837 10835 10834 10832 10831 10830 10829 10828 10826 10825 10824 10823
10834 10835 10836 10838 10841 10843 10846 10848 10849 10850 10852 10853 10855 10856 10856 10856 10856 10858 10859 10859 10859 10860 10861 10862 10863 10863 10863 10863 10863 10864 10865 10866 10868 10869 10870 10870 10870 10870 10869 10869 10869 10869 10870 10869 10869 10868 10867 10866 10865 10865 10864 10864 10863 10862 10861 10860 10858 10857 10856 10854 10853 10852 10850 10849 10847 10846 10844 10843 10842 10840 10839 10837 10836 10835 10833 10832 10830 10829 10828 10826 10825 10824 10823 10822 10820
10829 10830 10832 10834 10837 10839 10842 10844 10846 10847 10849 10850 10852 10853 10852 10852 10853 10854 10856 10856 10857 10858 10859 10860 10861 10861 10861 10861 10861 10862 10863 10864 10866 10867 10868 10869 10869 10869 10868 10868 10868 10868 10868 10868 10867 10866 10865 10865 10864 10863 10863 10862 10861 10861 10859 10858 10857 10856 10854 10853 10851 10850 10849 10847 10846 10844 10842 10841 10840 10838 10837 10835 10834 10832 10831 10830 10828 10827 10826 10824 10823 10822 10821 10819 10818
10823 10825 10827 10830 10833 10836 10839 10840 10842 10844 10846 10848 10849 10849 10848 10848 10850 10851 10853 10854 10855 10856 10856 10858 10859 10859 10859 10859 10859 10860 10861 10862 10864 10865 10866 10867 10867 10867 10867 10866 10866 10866 10867 10867 10866 10865 10864 10863 10863 10862 10861 10861 10860 10859 10858 10857 10856 10854 10853 10851 10850 10848 10847 10845 10844 10842 10841 10839 10838 10836 10835 10834 10832 10830 10828 10827 10826 10825 10824 10822 10821 10820 10818 10817 10816
10817 10820 10823 10826 10829 10832 10834 10836 10838 10841 10843 10845 10846 10846 10846 10846 10847 10848 10850 10852 10853 10853 10853 10855 10856 10857 10857 10857 10857 10858 10859 10860 10861 10863 10864 10865 10865 10865 10865 10865 10865 10865 10866 10866 10865 10863 10863 10862 10861 10861 10860 10860 10859 10858 10857 10856 10855 10853 10851 10850 10848 10847 10845 10844 10842 10841 10839 10837 10836 10834 10833 10832 10830 10828 10827 10825 10824 10823 10822 10820 10819 10817 10816 10815 10813
10812 10815 10818 10822 10825 10827 10830 10832 10834 10837 10839 10841 10842 10842 10844 10844 10845 10846 10847 10849 10849 10850 10850 10852 10854 10855 10855 10855 10856 10856 10857 10858 10859 10861 10862 10863 10863 10864 10864 10863 10864 10864 10864 10865 10864 10862 10862 10861 10860 10859 10859 10858 10858 10857 10856 10855 10853 10852 10850 10849 10847 10845 10844 10842 10840 10839 10837 10835 10834 10833 10831 10830 10828 10826 10825 10824 10822 10821 10820 10818 10817 10815 10814 10812 10811
10807 10810 10814 10818 10821 10823 10825 10828 10831 10833 10835 10837 10838 10839 10840 10841 10842 10842 10842 10845 10846 10847 10848 10850 10851 10852 10853 10853 10854 10855 10855 10856 10857 10858 10860 10861 10862 10862 10862 10862 10862 10862 10863 10863 10862 10861 10861 10860 10859 10858 10858 10857 10857 10856 10855 10854 10852 10850 10849 10847 10845 10844 10842 10840 10839 10837 10835 10834 10832 10831 10830 10828 10826 10825 10824 10822 10821 10819 10817 10816 10814 10813 10811 10810 10808
10802 10806 10809 10813 10816 10819 10821 10824 10827 10829 10831 10833 10835 10836 10837 10837 10838 10839 10839 10841 10843 10845 10847 10847 10848 10850 10851 10851 10852 10853 10854 10854 10855 10856 10857 10859 10860 10860 10860 10861 10861 10861 10861 10861 10861 10860 10859 10859 10858 10857 10857 10856 10856 10855 10854 10853 10851 10849 10848 10846 10844 10842 10841 10839 10838 10836 10834 10833 10831 10830 10828 10827 10825 10824 10822 10821 10819 10817 10815 10814 10812 10811 10809 10807 10805
10798 10802 10805 10809 10812 10815 10817 10820 10823 10825 10827 10829 10831 10833 10834 10835 10835 10836 10837 10839 10842 10844 10845 10845 10846 10847 10848 10849 10850 10851 10852 10852 10853 10854 10855 10857 10858 10858 10859 10859 10859 10859 10859 10860 10860 10859 10858 10857 10856 10856 10855 10855 10854 10853 10853 10852 10850 10848 10847 10845 10843 10841 10840 10838 10837 10835 10833 10831 10830 10828 10827 10826 10824 10822 10821 10819 10818 10816 10814 10812 10810 10808 10806 10804 10802
10793 10797 10801 10804 10807 10810 10813 10816 10819 10821 10824 10826 10827 10829 10831 10832 10832 10834 10836 10838 10840 10841 10842 10842 10843 10844 10845 10847 10848 10849 10850 10850 10851 10852 10854 10855 10856 10857 10857 10857 10857 10857 10858 10858 10858 10857 10856 10855 10855 10855 10854 10854 10853 10852 10851 10850 10849 10847 10846 10844 10842 10840 10839 10837 10835 10834 10832 10830 10828 10827 10825 10824 10822 10820 10819 10817 10816 10814 10812 10810 10808 10806 10804 10802 10799
10788 10793 10797 10800 10802 10805 10808 10811 10815 10818 10821 10823 10823 10825 10827 10829 10830 10832 10835 10836 10838 10838 10839 10839 10840 10840 10843 10844 10846 10847 10849 10849 10849 10851 10852 10854 10854 10855 10855 10855 10855 10856 10856 10856 10856 10856 10855 10854 10853 10853 10853 10852 10852 10851 10850 10849 10848 10846 10845 10843 10841 10840 10838 10836 10834 10832 10831 10829 10827 10825 10824 10822 10820 10818 10817 10815 10814 10812 10810 10808 10806 10803 10801 10799 10796
10783 10787 10791 10794 10796 10799 10803 10807 10811 10813 10816 10818 10820 10821 10823 10825 10826 10829 10832 10834 10835 10836 10836 10837 10837 10837 10840 10842 10844 10845 10847 10847 10848 10849 10850 10852 10852 10853 10854 10853 10854 10854 10854 10854 10854 10854 10853 10852 10851 10851 10851 10851 10850 10849 10848 10848 10846 10844 10843 10842 10840 10839 10837 10835 10833 10831 10829 10827 10825 10824 10822 10820 10818 10816 10814 10813 10811 10809 10807 10805 10803 10801 10798 10796 10793
10777 10781 10785 10789 10791 10794 10799 10804 10807 10808 10811 10814 10816 10818 10820 10822 10823 10825 10827 10829 10831 10832 10832 10833 10833 10835 10838 10840 10842 10843 10844 10845 10846 10847 10848 10849 10850 10851 10851 10851 10852 10852 10852 10852 10853 10852 10851 10850 10850 10849 10849 10849 10848 10847 10847 10846 10844 10843 10842 10840 10839 10837 10836 10834 10832 10830 10828 10826 10824 10822 10820 10818 10816 10814 10812 10810 10808 10806 10804 10802 10800 10798 10795 10793 10790
10772 10776 10780 10784 10786 10789 10794 10799 10802 10803 10806 10809 10811 10814 10817 10818 10819 10822 10823 10825 10827 10828 10829 10830 10831 10834 10836 10838 10840 10841 10842 10843 10843 10845 10846 10847 10848 10849 10849 10849 10849 10850 10850 10850 10850 10850 10849 10848 10848 10848 10847 10847 10846 10846 10845 10844 10843 10841 10840 10839 10838 10836 10834 10832 10830 10828 10826 10824 10822 10820 10818 10816 10814 10812 10810 10807 10805 10803 10801 10799 10797 10794 10792 10790 10787
10767 10771 10775 10778 10781 10785 10790 10795 10798 10800 10802 10805 10808 10810 10813 10815 10816 10818 10820 10822 10824 10826 10828 10829 10830 10832 10834 10835 10837 10838 10839 10840 10841 10842 10844 10845 10846 10847 10847 10847 10847 10847 10848 10848 10848 10848 10847 10846 10846 10846 10845 10845 10845 10844 10843 10842 10841 10840 10838 10837 10836 10835 10833 10831 10829 10827 10825 10823 10821 10819 10817 10814 10812 10810 10807 10805 10803 10801 10798 10796 10794 10792 10789 10786 10784
10761 10767 10770 10774 10777 10781 10786 10791 10793 10795 10798 10801 10804 10806 10809 10811 10813 10815 10817 10819 10821 10824 10826 10827 10829 10830 10830 10832 10834 10836 10837 10838 10839 10840 10841 10843 10844 10844 10845 10845 10845 10845 10846 10846 10846 10845 10844 10844 10844 10844 10843 10843 10843 10842 10841 10840 10839 10838 10837 10835 10834 10833 10831 10829 10827 10825 10823 10821 10819 10817 10815 10812 10810 10808 10805 10803 10800 10798 10796 10793 10791 10789 10786 10784 10781
10757 10762 10765 10769 10772 10777 10781 10784 10787 10791 10794 10797 10800 10802 10805 10807 10810 10812 10813 10816 10819 10821 10824 10825 10826 10826 10827 10829 10831 10833 10835 10836 10836 10837 10839 10840 10842 10842 10843 10842 10843 10843 10843 10844 10844 10843 10842 10842 10842 10842 10841 10841 10840 10840 10839 10838 10837 10836 10835 10833 10832 10831 10829 10827 10825 10824 10822 10820 10817 10815 10813 10811 10808 10805 10803 10800 10798 10795 10793 10791 10788 10786 10784 10781 10779
10751 10755 10758 10763 10768 10773 10777 10781 10783 10786 10789 10792 10794 10797 10801 10803 10806 10809 10810 10813 10816 10818 10820 10821 10822 10822 10824 10826 10829 10831 10832 10833 10834 10835 10836 10838 10839 10840 10840 10840 10841 10841 10841 10841 10841 10841 10840 10840 10840 10840 10839 10839 10838 10838 10837 10836 10835 10834 10833 10832 10830 10829 10827 10825 10824 10822 10820 10818 10816 10813 10811 10809 10806 10803 10801 10798 10795 10793 10791 10788 10786 10784 10781 10779 10776
10746 10750 10754 10760 10764 10769 10774 10778 10779 10781 10784 10787 10790 10793 10796 10799 10802 10805 10806 10809 10811 10813 10815 10816 10817 10819 10821 10823 10826 10828 10829 10831 10832 10833 10834 10835 10836 10837 10837 10838 10838 10838 10838 10838 10839 10838 10838 10838 10838 10838 10837 10837 10836 10835 10835 10834 10833 10832 10831 10830 10828 10827 10825 10824 10822 10820 10818 10816 10814 10812 10809 10807 10804 10801 10798 10796 10793 10790 10788 10786 10784 10781 10779 10776 10773
10744 10747 10751 10755 10759 10765 10770 10774 10774 10776 10779 10783 10786 10789 10792 10795 10798 10801 10803 10805 10806 10808 10811 10813 10814 10816 10818 10820 10822 10824 10826 10828 10829 10830 10831 10832 10834 10834 10835 10835 10836 10836 10836 10836 10836 10836 10836 10836 10836 10836 10835 10834 10834 10833 10832 10831 10831 10830 10829 10828 10826 10825 10823 10822 10819 10818 10816 10814 10812 10810 10807 10805 10802 10799 10796 10794 10791 10788 10786 10783 10781 10779 10776 10774 10771
10737 10742 10746 10750 10754 10760 10765 10768 10769 10771 10775 10779 10783 10786 10789 10791 10794 10796 10799 10801 10802 10805 10808 10810 10811 10812 10814 10816 10819 10821 10823 10824 10826 10827 10828 10830 10831 10832 10832 10833 10833 10834 10834 10834 10834 10834 10834 10834 10834 10834 10833 10832 10831 10831 10830 10829 10828 10827 10827 10825 10824 10822 10821 10819 10817 10815 10814 10812 10810 10808 10806 10803 10800 10797 10794 10791 10789 10786 10784 10781 10779 10777 10774 10771 10768
10728 10735 10740 10745 10750 10755 10759 10762 10764 10767 10772 10776 10779 10783 10786 10787 10789 10792 10795 10797 10799 10801 10804 10806 10808 10808 10810 10812 10815 10817 10819 10821 10823 10824 10826 10827 10828 10829 10830 10830 10831 10831 10832 10832 10832 10832 10832 10832 10831 10831 10830 10830 10829 10828 10828 10827 10826 10825 10824 10823 10822 10820 10818 10817 10815 10813 10812 10810 10808 10806 10804 10801 10798 10796 10793 10789 10787 10784 10782 10779 10777 10774 10772 10769 10765
10722 10729 10734 10740 10746 10750 10753 10756 10759 10763 10768 10771 10774 10779 10781 10782 10784 10787 10790 10793 10795 10797 10799 10802 10804 10804 10806 10809 10812 10814 10816 10818 10820 10821 10823 10824 10825 10826 10827 10827 10828 10829 10830 10830 10830 10830 10830 10829 10829 10829 10828 10827 10827 10826 10825 10824 10823 10822 10821 10821 10819 10818 10816 10815 10813 10812 10810 10808 10806 10804 10802 10799 10796 10793 10791 10788 10785 10782 10780 10777 10775 10772 10770 10767 10763
10719 10725 10730 10735 10740 10745 10748 10753 10756 10759 10763 10767 10770 10774 10777 10778 10780 10782 10785 10788 10791 10793 10795 10798 10799 10800 10803 10806 10808 10810 10812 10814 10816 10818 10820 10821 10822 10823 10824 10825 10826 10826 10827 10828 10828 10828 10827 10827 10826 10826 10826 10825 10825 10824 10823 10821 10820 10819 10818 10818 10817 10815 10814 10812 10811 10810 10808 10806 10803 10802 10799 10797 10794 10791 10789 10786 10783 10780 10778 10775 10773 10770 10767 10764 10761
10716 10722 10728 10733 10738 10741 10745 10750 10753 10756 10759 10762 10766 10770 10774 10775 10777 10779 10781 10784 10787 10789 10791 10794 10796 10797 10799 10802 10805 10807 10809 10811 10813 10815 10816 10818 10819 10820 10821 10821 10822 10823 10824 10824 10825 10825 10825 10825 10824 10824 10823 10823 10822 10821 10820 10819 10818 10816 10815 10814 10814 10813 10811 10810 10809 10808 10806 10804 10801 10799 10797 10795 10792 10789 10786 10784 10781 10778 10776 10773 10771 10768 10765 10762 10758
10710 10717 10723 10728 10733 10736 10740 10745 10749 10752 10755 10758 10763 10769 10773 10773 10774 10775 10777 10780 10783 10784 10787 10790 10792 10794 10796 10799 10802 10804 10805 10807 10809 10811 10812 10814 10815 10816 10817 10818 10819 10820 10820 10821 10821 10822 10822 10822 10822 10821 10821 10821 10820 10819 10818 10817 10815 10814 10812 10811 10810 10810 10809 10807 10806 10805 10804 10802 10799 10797 10795 10792 10790 10787 10784 10781 10779 10776 10774 10771 10769 10766 10763 10760 10756
10704 10710 10712 10717 10724 10729 10734 10739 10743 10748 10751 10754 10759 10764 10766 10767 10769 10772 10772 10774 10777 10780 10783 10786 10788 10791 10793 10795 10798 10800 10802 10803 10805 10807 10809 10810 10812 10813 10814 10815 10815 10816 10817 10817 10818 10818 10819 10819 10819 10819 10818 10818 10818 10817 10816 10814 10813 10812 10810 10808 10807 10807 10806 10805 10804 10802 10801 10799 10797 10795 10792 10790 10787 10785 10782 10780 10777 10774 10772 10769 10767 10764 10761 10758 10754
10698 10702 10704 10710 10716 10721 10726 10732 10738 10743 10747 10751 10753 10756 10758 10759 10763 10766 10767 10767 10769 10774 10777 10781 10784 10787 10789 10791 10794 10797 10798 10800 10801 10803 10804 10806 10808 10810 10811 10811 10812 10813 10813 10814 10814 10815 10815 10816 10816 10816 10816 10815 10815 10814 10813 10812 10811 10809 10808 10806 10805 10804 10803 10802 10801 10800 10798 10797 10795 10793 10790 10788 10785 10782 10780 10777 10775 10772 10770 10767 10765 10762 10759 10756 10752
10691 10695 10699 10704 10710 10714 10719 10726 10731 10736 10741 10744 10746 10750 10754 10755 10755 10757 10760 10762 10763 10767 10771 10775 10779 10781 10784 10787 10790 10793 10794 10796 10797 10799 10801 10803 10805 10806 10807 10808 10808 10809 10810 10810 10811 10811 10812 10812 10812 10812 10812 10812 10812 10811 10811 10810 10808 10807 10805 10805 10803 10802 10800 10799 10799 10797 10796 10794 10792 10791 10788 10786 10783 10780 10777 10775 10773 10770 10768 10765 10763 10760 10757 10754 10750
10685 10690 10694 10698 10703 10708 10714 10719 10723 10728 10734 10738 10741 10745 10747 10748 10749 10751 10756 10758 10760 10763 10766 10771 10774 10777 10780 10782 10786 10789 10791 10792 10793 10795 10797 10799 10801 10802 10804 10804 10805 10805 10806 10807 10807 10808 10808 10808 10808 10809 10809 10809 10808 10808 10808 10807 10806 10804 10803 10803 10801 10800 10798 10796 10796 10795 10793 10791 10789 10788 10786 10784 10781 10778 10775 10773 10770 10768 10765 10763 10761 10758 10755 10752 10748
10677 10683 10687 10691 10696 10702 10708 10712 10716 10721 10725 10731 10735 10737 10739 10742 10745 10748 10752 10756 10759 10761 10764 10767 10770 10773 10776 10778 10781 10784 10786 10788 10790 10791 10793 10795 10797 10798 10800 10801 10801 10802 10802 10803 10803 10804 10804 10804 10805 10805 10805 10805 10805 10805 10804 10804 10803 10802 10801 10800 10799 10798 10796 10794 10793 10792 10790 10787 10786 10785 10783 10781 10778 10776 10773 10771 10769 10766 10763 10761 10759 10756 10753 10750 10747
10669 10675 10681 10685 10690 10697 10701 10705 10710 10714 10718 10722 10726 10728 10732 10737 10740 10744 10747 10750 10754 10758 10761 10763 10766 10769 10772 10774 10777 10780 10782 10784 10785 10787 10788 10791 10793 10794 10796 10797 10797 10798 10798 10799 10799 10800 10800 10800 10801 10801 10801 10801 10801 10801 10801 10801 10800 10800 10799 10798 10797 10795 10794 10792 10790 10788 10787 10784 10783 10782 10780 10778 10776 10773 10771 10769 10767 10764 10762 10759 10757 10754 10752 10748 10745
10661 10667 10674 10678 10684 10690 10694 10698 10702 10707 10712 10716 10718 10721 10726 10731 10735 10738 10741 10744 10749 10754 10758 10759 10761 10764 10768 10771 10773 10775 10777 10779 10781 10783 10784 10786 10788 10790 10792 10793 10794 10794 10794 10795 10795 10796 10796 10797 10797 10798 10798 10797 10797 10797 10797 10797 10797 10797 10796 10795 10794 10793 10791 10789 10788 10786 10784 10782 10780 10779 10777 10776 10773 10771 10769 10767 10765 10762 10760 10757 10755 10752 10749 10747 10744
10654 10660 10666 10671 10676 10682 10688 10691 10695 10701 10707 10711 10713 10718 10723 10726 10728 10730 10734 10738 10743 10748 10752 10754 10757 10760 10763 10766 10769 10771 10773 10775 10777 10778 10780 10781 10783 10786 10787 10789 10789 10790 10791 10791 10792 10792 10793 10793 10794 10794 10794 10794 10794 10793 10794 10794 10794 10793 10793 10792 10792 10791 10789 10787 10785 10783 10781 10780 10778 10776 10775 10773 10771 10768 10767 10765 10763 10760 10758 10755 10752 10750 10747 10745 10742
10647 10653 10659 10664 10669 10675 10681 10684 10689 10696 10702 10705 10710 10714 10717 10719 10721 10724 10728 10733 10739 10743 10746 10750 10753 10756 10759 10761 10764 10766 10768 10771 10772 10773 10775 10776 10778 10780 10783 10784 10785 10786 10787 10787 10788 10789 10789 10790 10790 10790 10790 10790 10790 10790 10790 10790 10790 10790 10790 10790 10789 10788 10786 10785 10783 10781 10779 10777 10775 10774 10772 10771 10769 10766 10765 10763 10760 10758 10755 10753 10750 10748 10745 10743 10740
10640 10646 10651 10657 10662 10667 10672 10676 10683 10690 10695 10699 10703 10705 10709 10713 10718 10721 10725 10730 10735 10739 10743 10746 10749 10751 10754 10757 10759 10761 10763 10766 10767 10769 10771 10771 10773 10775 10777 10779 10780 10782 10783 10783 10784 10785 10785 10786 10786 10786 10786 10786 10786 10786 10787 10787 10787 10786 10786 10787 10787 10786 10784 10783 10781 10779 10777 10775 10773 10771 10770 10768 10766 10764 10762 10760 10758 10755 10753 10751 10748 10746 10744 10741 10738
10631 10638 10644 10649 10654 10660 10664 10669 10676 10682 10687 10691 10693 10696 10702 10709 10714 10717 10720 10726 10731 10736 10739 10741 10742 10745 10748 10750 10752 10755 10758 10760 10761 10764 10765 10766 10767 10769 10771 10774 10776 10777 10778 10779 10781 10781 10781 10782 10782 10782 10782 10782 10782 10783 10783 10783 10783 10783 10783 10784 10785 10784 10783 10780 10778 10776 10775 10773 10771 10769 10767 10766 10764 10762 10760 10758 10755 10753 10750 10748 10746 10744 10742 10739 10736
10621 10629 10635 10641 10646 10652 10656 10662 10669 10675 10680 10683 10685 10690 10697 10705 10710 10713 10716 10721 10726 10730 10732 10733 10734 10737 10741 10743 10746 10749 10751 10753 10756 10758 10760 10761 10763 10764 10766 10768 10771 10772 10774 10775 10776 10777 10777 10778 10778 10778 10778 10778 10779 10779 10780 10780 10780 10780 10781 10782 10782 10782 10780 10778 10776 10774 10773 10771 10769 10767 10765 10764 10762 10760 10758 10756 10753 10750 10748 10746 10744 10742 10739 10737 10734
10612 10619 10626 10632 10638 10643 10648 10653 10660 10666 10671 10675 10679 10685 10693 10700 10704 10708 10711 10715 10720 10723 10724 10725 10727 10731 10736 10739 10741 10743 10745 10747 10750 10752 10755 10757 10758 10760 10761 10763 10765 10767 10769 10770 10771 10772 10773 10774 10774 10774 10774 10774 10775 10776 10776 10776 10777 10777 10778 10779 10780 10780 10778 10776 10774 10772 10771 10769 10767 10765 10763 10762 10760 10758 10756 10754 10751 10748 10746 10744 10742 10739 10737 10735 10732
10604 10610 10616 10623 10629 10634 10639 10644 10650 10657 10663 10668 10673 10680 10688 10694 10698 10701 10706 10710 10715 10717 10718 10720 10724 10728 10732 10734 10736 10738 10740 10741 10744 10747 10749 10752 10754 10755 10756 10758 10760 10762 10764 10765 10766 10768 10768 10769 10770 10770 10770 10770 10771 10772 10772 10773 10773 10774 10775 10776 10777 10776 10775 10774 10772 10770 10769 10768 10766 10764 10762 10760 10758 10756 10754 10752 10749 10746 10744 10742 10739 10737 10734 10733 10730
10595 10601 10607 10614 10620 10626 10630 10635 10642 10650 10656 10661 10667 10674 10682 10687 10691 10696 10701 10706 10710 10711 10713 10717 10722 10724 10726 10728 10731 10733 10735 10736 10738 10741 10744 10746 10748 10750 10751 10753 10755 10757 10758 10760 10762 10762 10763 10764 10765 10765 10766 10767 10767 10768 10769 10769 10770 10771 10771 10772 10773 10773 10772 10771 10770 10768 10767 10766 10764 10762 10761 10759 10757 10754 10752 10750 10747 10744 10741 10739 10737 10734 10732 10730 10728
10586 10592 10598 10604 10611 10617 10621 10627 10634 10641 10648 10653 10659 10667 10675 10680 10685 10691 10696 10700 10703 10704 10708 10714 10717 10719 10721 10724 10726 10728 10729 10731 10733 10735 10738 10741 10743 10744 10745 10747 10749 10751 10753 10755 10757 10758 10759 10760 10761 10762 10762 10763 10764 10765 10765 10766 10767 10767 10768 10769 10769 10769 10769 10768 10767 10766 10764 10764 10762 10760 10759 10757 10755 10753 10751 10748 10745 10742 10739 10737 10735 10732 10730 10728 10726
10576 10582 10589 10595 10601 10607 10613 10619 10625 10632 10640 10645 10652 10660 10666 10672 10679 10685 10689 10694 10697 10699 10704 10709 10712 10714 10716 10718 10720 10722 10724 10726 10728 10730 10732 10734 10736 10738 10740 10742 10744 10746 10748 10750 10752 10754 10755 10756 10757 10758 10758 10759 10760 10761 10761 10762 10763 10764 10764 10764 10765 10765 10765 10765 10764 10763 10762 10761 10760 10758 10757 10755 10753 10752 10749 10746 10742 10739 10737 10735 10733 10730 10728 10726 10723